Regional Weather Roundup
Issued by NWS

Home | Current Version | Previous Version | Graphics & Text | Print | Product List | Glossary On
Versions: 1 2 3 4 5 6 7 8 9 10 11 12 13 14 15 16 17 18 19 20 21 22 23 24 25 26 27 28 29 30 31 32 33 34 35 36 37 38 39 40 41 42 43 44 45 46 47 48 49 50
000
ASUS43 KFSD 191202
RWRSD

WEATHER ROUNDUP FOR SOUTH DAKOTA
NATIONAL WEATHER SERVICE SIOUX FALLS SD
700 AM CDT THU APR 19 2018

NOTE: "FAIR" INDICATES FEW OR NO CLOUDS BELOW 12,000 FEET WITH NO
SIGNIFICANT WEATHER AND/OR OBSTRUCTIONS TO VISIBILITY.


SDZ001>005-009-010-012>017-191300-
NORTHWEST AND NORTH CENTRAL SOUTH DAKOTA

CITY           SKY/WX    TMP DP  RH WIND       PRES   REMARKS
BUFFALO          N/A     31  28  89 E5        30.24S WCI  26
FAITH            N/A     31  29  92 SE12      30.34S WCI  22
MOBRIDGE       CLEAR     26  22  84 CALM      30.37R
$$

SDZ012>016-024>037-041>051-057-063-072>074-191300-
SOUTHWEST AND SOUTH CENTRAL SOUTH DAKOTA

CITY           SKY/WX    TMP DP  RH WIND       PRES   REMARKS
RAPID CTY ARPT CLEAR     29  27  92 CALM      30.32F
PIERRE         CLEAR     24  23  96 CALM      30.39R
CUSTER         CLEAR     24  20  84 CALM      30.29S
ELLSWORTH AFB  CLEAR     34  32  92 S6        30.31S WCI  29
PHILIP         CLOUDY    25  25 100 W5        30.38R FOG     WCI  19
PINE RIDGE     CLEAR     28  27  96 E3        30.35R
SPEARFISH      FAIR      32  27  80 E10       30.28S WCI  24
WINNER         FAIR      27  21  78 S3        30.39R
$$

SDZ004>011-016>023-039-040-191300-
NORTHEAST SOUTH DAKOTA

CITY           SKY/WX    TMP DP  RH WIND       PRES   REMARKS
ABERDEEN       CLEAR     23  21  92 SW5       30.40R FOG     WCI  17
WATERTOWN      CLEAR     26  25  96 SE5       30.38R WCI  20
BROOKINGS      CLEAR     24  22  91 CALM      30.40R
$$

SDZ017-020-022-023-036>040-048>070-191300-
SOUTHEAST SOUTH DAKOTA

CITY           SKY/WX    TMP DP  RH WIND       PRES   REMARKS
SIOUX FALLS    PTCLDY    24  20  84 NE6       30.40R WCI  17
HURON          CLEAR     24  23  96 SW5       30.41R WCI  18
CHAMBERLAIN    CLEAR     28  28 100 W6        30.41R WCI  21
MITCHELL       CLEAR     27  25  92 CALM      30.42R
YANKTON        CLEAR     28  26  92 NW10      30.41R WCI  19
$$

ABBREVIATIONS USED IN REMARKS
   TC - TEMPERATURE IN CELSIUS
  WCI - WIND CHILL INDEX
   HX - HEAT INDEX
  VSB - VISIBILITY




USA.gov is the U.S. government's official web portal to all federal, state and local government web resources and services.